Location: Bacea
(45.9500°N, 22.6667°E)
Time: 08:41:04
(UTC+00:00)

Cosmos 1300 - Pass Details

Date: 30 May 2022
Orbit: 506 x 508 km, 82.5° (Epoch: 06 July)

Event Time Altitude Azimuth Distance (km) Brightness Sun altitude
Rises 21:53:42 0° 4° (N) 2,624 7.7 -21.8°
Reaches altitude 10° 21:56:15 10° 21° (NNE) 1,732 6.2 -21.8°
Maximum altitude 21:59:10 21° 71° (ENE) 1,199 4.6 -21.9°
Enters shadow 21:59:45 20° 85° (E) 1,225 4.5 -21.9°
